Falconara, Italy

4:51 AM CEST on June 23, 2017 (GMT +0200)
Falconara Mil

Weather History for LIPY - November, 2012

Change the Weather History Date:

Tuesday, November 13, 2012

  Actual Average Record
Temperature  
Mean Temperature 56 °F -  
Max Temperature 57 °F 53 °F 69 °F (1996)
Min Temperature 55 °F 41 °F 33 °F (2007)
Degree Days  
Heating Degree Days 9    
Growing Degree Days 6 (Base 50)    
Moisture  
Dew Point 55 °F    
Average Humidity 94    
Maximum Humidity 100    
Minimum Humidity 94    
Precipitation  
Precipitation 0.00 in 0.10 in - ()
Sea Level Pressure  
Sea Level Pressure 30.30 in    
Wind  
Wind Speed 4 mph ()    
Max Wind Speed 8 mph    
Max Gust Speed -    
Visibility 4.3 miles    
Events Rain    
Averages and records for this station are not official NWS values.
T = Trace of Precipitation, MM = Missing Value Source: Averaged Metar Reports

Daily Weather History Graph

Daily Weather History Graph

Search for Another Location

Airport or City:

Trip Planner

Search our weather history database for the weather conditions in past years. The results will help you decide how hot, cold, wet, or windy it might be!

Date:

Astronomy

Nov. 13, 2012 Rise Set
Actual Time 6:58 AM CET 4:42 PM CET
Civil Twilight 6:27 AM CET 5:13 PM CET
Nautical Twilight 5:52 AM CET 5:48 PM CET
Astronomical Twilight 5:18 AM CET 6:22 PM CET
Moon 6:15 AM CET (11/13) 4:21 PM CET (11/13)
Length of Visible Light 10h 46m
Length of Day
9h 44m
Waning Crescent, 0% of the Moon is Illuminated
Nov 13
Waning Crescent
Nov 13
New
Nov 20
First Quarter
Nov 28
Full
Dec 6
Last Quarter

Hourly Weather History & Observations

Time (CET) Temp. Dew Point Humidity Pressure Visibility Wind Dir Wind Speed Gust Speed Precip Events Conditions
12:50 AM 57.2 °F 55.4 °F 94% 30.24 in 6.2 mi Variable 3.5 mph - N/A Rain Rain
1:50 AM 57.2 °F 55.4 °F 94% 30.24 in 6.2 mi NW 4.6 mph - N/A Rain Light Rain
2:50 AM 57.2 °F 55.4 °F 94% 30.24 in 6.2 mi NW 5.8 mph - N/A Rain Light Rain
3:50 AM 55.4 °F 53.6 °F 94% 30.24 in 6.2 mi NNW 3.5 mph - N/A   Mostly Cloudy
4:50 AM 55.4 °F 53.6 °F 94% 30.24 in 6.2 mi West 3.5 mph - N/A Rain Light Rain
5:50 AM 55.4 °F 53.6 °F 94% 30.24 in 6.2 mi Variable 2.3 mph - N/A Rain Light Rain
6:50 AM 55.4 °F 53.6 °F 94% 30.27 in 2.5 mi SW 5.8 mph - N/A Rain Light Rain
7:50 AM 55.4 °F 53.6 °F 94% 30.30 in 5.0 mi SSW 3.5 mph - N/A   Mostly Cloudy
8:36 AM 55.4 °F 53.6 °F 94% 30.33 in 2.5 mi WSW 4.6 mph - N/A Rain Rain
8:50 AM 55.4 °F 53.6 °F 94% 30.33 in 1.9 mi WSW 5.8 mph - N/A Rain Rain
9:50 AM 55.4 °F 53.6 °F 94% 30.33 in 3.1 mi West 3.5 mph - N/A Rain Light Rain
10:50 AM 55.4 °F 55.4 °F 100% 30.33 in 5.0 mi West 3.5 mph - N/A Rain Light Rain
11:50 AM 57.2 °F 55.4 °F 94% 30.33 in 3.7 mi West 3.5 mph - N/A Rain Light Rain
12:50 PM 57.2 °F 55.4 °F 94% 30.33 in 3.7 mi WNW 4.6 mph - N/A Rain Light Rain
1:50 PM 57.2 °F 55.4 °F 94% 30.30 in 3.7 mi NW 8.1 mph - N/A Rain Light Rain
2:50 PM 57.2 °F 55.4 °F 94% 30.30 in 3.7 mi NW 8.1 mph - N/A   Mostly Cloudy
3:50 PM 57.2 °F 55.4 °F 94% 30.30 in 3.7 mi WNW 5.8 mph - N/A   Mostly Cloudy
4:09 PM 57.2 °F 55.4 °F 94% 30.30 in 2.5 mi West 4.6 mph - N/A   Mostly Cloudy
4:50 PM 57.2 °F 55.4 °F 94% 30.30 in 2.5 mi West 5.8 mph - N/A   Mostly Cloudy
5:50 PM 57.2 °F 55.4 °F 94% 30.33 in 2.5 mi West 3.5 mph - N/A   Mostly Cloudy
6:50 PM 57.2 °F 55.4 °F 94% 30.33 in 3.7 mi West 3.5 mph - N/A   Mostly Cloudy
7:50 PM 57.2 °F 55.4 °F 94% 30.33 in 3.7 mi WNW 4.6 mph - N/A   Mostly Cloudy
8:50 PM 57.2 °F 55.4 °F 94% 30.33 in 4.3 mi WNW 5.8 mph - N/A   Mostly Cloudy
9:50 PM 57.2 °F 55.4 °F 94% 30.33 in 6.2 mi WNW 6.9 mph - N/A   Mostly Cloudy
10:50 PM 57.2 °F 55.4 °F 94% 30.33 in 5.0 mi WNW 8.1 mph - N/A   Mostly Cloudy
11:50 PM 57.2 °F 55.4 °F 94% 30.30 in 5.0 mi West 6.9 mph - N/A   Mostly Cloudy